STARLINK-32175, 60339

Orbit data source: Space-Track

STARLINK-32175, 60339 is a payload satellite owned by SpaceX/Seattle (US) in LEO that was launched on Fri, 02 Aug 2024 UTC via an FALCON 9 launch vehicle from the Air Force Eastern Test Range (AFETR). Payload-class satellites include a variety of spacecraft equipped with specific instruments for various scientific and technological missions. These include communications satellites like Starlink; space stations such as the ISS; scientific satellites like the Hubble; Earth observation satellites from companies like Planet Labs, Umbra, and HawkEye 360; GPS; miniature CubeSats for education and research; and military/defense satellites.

Loading next visibility...
Identifier
60339, 2024-136L
Orbit
LEO
Last TLE update
19 hours ago
Origin
Manufacturer
SpaceX/Seattle
Mission
Operational Commercial Communications
Bus & Motor
STARLINK V2M, Unknown motor
Mass
730 kg wet, ~700 kg dry
Launch date (UTC)
2024-08-02 (11 months ago)
Launch vehicle
FALCON 9
Launch site
Air Force Eastern Test Range (AFETR)
Object type
Payload
Rocket body
Debris
Shape & HBR
Box + 2 Pan, 29 m
Radar Cross Section
33.884 m², Large (>1 m²)

Expand to show TLE details & history

TLE from 19 hours ago
0 STARLINK-32175
1 60339U 24136L   25186.20883180 -.00000810  00000-0 -15246-4 0  9992
2 60339  53.1594 145.2254 0001237  83.6682 276.4459 15.30187151 51778
Epoch: 2025-07-05T05:00Z
TLE epoch observation values (Epoch: 2025-07-05T05:00:43.067Z)
Latitude
-0.00007°
Longitude
146.59573°
Altitude
476.058 km
Speed
7.629 km/s
True Right ascension
09h 40m 54s
True Declination
0° 00' 00"
Sunlit
Object was in daylight at epoch
Visualization orbit readout
Latitude
16.87738°
Longitude
156.00064°
Altitude
475.158 km
Speed
7.631 km/s
Apparent Right ascension
07h 25m 50s
Apparent Declination
-36° 34' 38"
Sunlit
Object is in daylight
Visualization observer readout
Local Sidereal Time
11:51:18
Azimuth
227.949° WSW
Elevation
-7.785°
Doppler factor
1
Orbital elements
Apogee altitude
476.358 km
Perigee altitude
474.662 km
Semi-major axis
6,853.647 km
Eccentricity
0.00012
Inclination
53.1594°
RAAN
145.2254°
Arg. of periapsis
83.6682°
True anomaly
Unknown
Mean anomaly
276.4459°
Eccentric anomaly
Unknown
Mean motion
3.82526 °/min
Orbital period
94.11 mins
BSTAR
-0.000015246
Loading maneuver chart data...
Loading SW <> Apogee altitude chart data...
Loading historical data...
Loading historical data...
Loading historical data...
Loading historical data...
Loading historical data...
Loading historical data...
Loading historical data...

STARLINK-32175 Visibility forecast

Observer location: undefined°, undefined°

Span
Click to sort rows by Start time (UTC) header in descending order
Start Az.
Max El. time (UTC)
Max El. Az.
Max El.
End time (UTC)
End Az.
6 mins2025-07-05 23:59:52.957Z228.004° WSW2025-07-06 00:02:52.957Z221.233° SW43.848°2025-07-06 00:05:52.957Z50.614° ENE
4 mins2025-07-06 04:57:52.957Z344.96° N2025-07-06 04:59:52.957Z21.424° NNE15.926°2025-07-06 05:01:52.957Z57.014° ENE
6 mins2025-07-06 06:35:52.957Z316.315° NNW2025-07-06 06:37:52.957Z350.427° N42.148°2025-07-06 06:41:52.957Z124.168° SE
5 mins2025-07-06 23:31:52.957Z218.844° SW2025-07-06 23:33:52.957Z107.953° ESE43.679°2025-07-06 23:36:52.957Z53.692° ENE
|